Home > Weather > Libreville > Past weeks

Flag for Gabon Past Weather in Libreville, Gabon — Yesterday and Last 2 Weeks

Now
81 °F

Passing clouds.


Feels Like: 85 °F
Forecast: 78 / 85 °F
Wind: 9 mph from Southeast

Location: Libreville Airport

Current Time: May 26, 2016 at 1:47:13 PM

Latest Report: May 26, 2016 at 12:00 PM


Visibility: N/A

Pressure: 29.95 "Hg

Humidity: 79%

Dew Point: 73 °F

Location of LibrevilleLocation

Past Weather in Libreville — Graph

°F

Libreville Temperature Yesterday

Maximum temperature yesterday: 84 °F (at 3:00 PM)
Minimum temperature yesterday: 79 °F (at 3:00 AM)
Average temperature yesterday: 81 °F

High & Low Weather Summary for the Past Weeks

 TemperatureHumidityPressure
High90 °F (May 13, 3:00 PM)100% (May 11, 11:00 PM)30.04 "Hg (May 11, 11:00 PM)
Low75 °F (May 13, 11:00 PM)62% (May 24, 2:00 PM)29.77 "Hg (May 12, 4:00 PM)
Average82 °F82%29.92 "Hg
* Reported May 11 12:00 PM — May 26 12:00 PM, Libreville, Weather by CustomWeather, © 2016

Note: Actual official high and low records may vary slightly from our data, if they occured in-between our weather recording intervals... More about our weather records

Advertising

Libreville Weather History for the Previous 24 Hours

Scroll right to see more
 ConditionsComfort  
Time TempWeatherWind HumidityBarometerVisibility
12:00 PM
Thu, May 26
81 °FPassing clouds.9 mph79%29.95 "HgN/A
11:00 AM81 °FPartly sunny.8 mph79%29.98 "HgN/A
10:00 AM79 °FPartly sunny.9 mph84%29.98 "HgN/A
9:00 AM77 °FPartly sunny.9 mph83%29.98 "Hg5 mi
8:00 AM77 °FPartly sunny.10 mph83%29.95 "Hg5 mi
7:00 AM77 °FPartly sunny.10 mph79%29.92 "Hg5 mi
6:00 AM77 °FPassing clouds.10 mph79%29.92 "Hg6 mi
5:00 AM77 °FPassing clouds.12 mph79%29.89 "Hg6 mi
4:00 AM77 °FPassing clouds.10 mph83%29.89 "Hg6 mi
3:00 AM77 °FPassing clouds.9 mph89%29.89 "Hg6 mi
2:00 AM79 °FPassing clouds.9 mph84%29.89 "Hg6 mi
1:00 AM79 °FPartly cloudy.7 mph84%29.92 "HgN/A
12:00 AM81 °FPartly cloudy.10 mph79%29.95 "HgN/A
11:00 PM
Wed, May 25
81 °FPartly cloudy.10 mph79%29.95 "HgN/A
10:00 PM81 °FPartly cloudy.10 mph84%29.95 "HgN/A
9:00 PM81 °FPartly cloudy.10 mph84%29.95 "HgN/A
8:00 PM81 °FPartly cloudy.9 mph84%29.92 "HgN/A
7:00 PM81 °FPartly cloudy.8 mph84%29.89 "HgN/A
6:00 PM81 °FBroken clouds.9 mph79%29.89 "HgN/A
5:00 PM82 °FScattered clouds.10 mph79%29.89 "HgN/A
4:00 PM82 °FScattered clouds.10 mph79%29.89 "HgN/A
3:00 PM84 °FScattered clouds.8 mph74%29.89 "HgN/A
2:00 PM82 °FScattered clouds.7 mph79%29.92 "HgN/A
1:00 PM81 °FPartly sunny.7 mph84%29.95 "Hg6 mi
Weather by CustomWeather, © 2016

See weather overviewHow to use our weather pages